Date String (YYYY-MM-DD hh:mm:ss) UTC,Instrument flags,Ambient pressure (hPa),Sample flow (lpm),Bypass flow (lpm),Sample temperature (°C),Ambient temperature (°C),ASC tube jacket temperature (°C),LED temperature (°C),Box temperature (°C),Sample RH (%),Span deviation,Mass concentration (μg/m³),Mass concentration (μg/m³),Mass concentration (μg/m³)
DateTimeUTC,F1_M11,P_M11,Q1_M11,Q2_M11,T1_M11,T2_M11,T3_M11,T4_M11,T5_M11,U1_M11,ZSPAN_M11,X0_M11,X2_M11,X1_M11
2022-03-22 04:00:00,,0827.0,5.00,0.00,22.5,21.6,00.0,31.5,24.3,10.8,0000.0,0010.14,0003.44,0002.69
2022-03-22 04:01:00,,0827.1,5.00,0.00,22.5,21.6,00.0,31.5,24.3,10.8,0000.0,0010.13,0003.42,0002.67
2022-03-22 04:02:00,,0827.1,4.98,0.00,22.5,21.6,00.0,31.5,24.3,10.8,0000.0,0009.42,0003.41,0002.66
2022-03-22 04:03:00,,0827.1,5.00,0.00,22.5,21.6,00.0,31.5,24.3,10.9,0000.0,0009.29,0003.37,0002.66
2022-03-22 04:04:00,,0827.1,5.00,0.00,22.5,21.7,00.0,31.5,24.3,10.9,0000.0,0009.10,0003.32,0002.64
2022-03-22 04:05:00,,0827.1,5.00,0.00,22.5,21.7,00.0,31.5,24.3,10.7,0000.0,0008.59,0003.30,0002.65
2022-03-22 04:06:00,,0827.1,5.00,0.00,22.5,21.7,00.0,31.5,24.3,10.8,0000.0,0008.15,0003.28,0002.65
2022-03-22 04:07:00,,0827.1,5.01,0.00,22.5,21.7,00.0,31.5,24.3,10.6,0000.0,0007.78,0003.27,0002.66
2022-03-22 04:08:00,,0827.1,5.00,0.00,22.5,21.7,00.0,31.5,24.3,10.7,0000.0,0006.89,0003.23,0002.63
2022-03-22 04:09:00,,0827.1,5.00,0.00,22.5,21.7,00.0,31.5,24.3,10.6,0000.0,0005.28,0003.22,0002.62
2022-03-22 04:10:00,,0827.1,4.99,0.00,22.5,21.6,00.0,31.5,24.3,10.5,0000.0,0005.35,0003.22,0002.59
2022-03-22 04:11:00,,0827.1,5.00,0.00,22.5,21.6,00.0,31.5,24.3,10.4,0000.0,0005.32,0003.21,0002.57
2022-03-22 04:12:00,,0827.1,5.00,0.00,22.5,21.6,00.0,31.5,24.2,10.4,0000.0,0006.00,0003.18,0002.55
2022-03-22 04:13:00,,0827.1,4.99,0.00,22.5,21.6,00.0,31.5,24.2,10.4,0000.0,0006.58,0003.16,0002.53
2022-03-22 04:14:00,,0827.1,5.02,0.00,22.5,21.6,00.0,31.5,24.2,10.4,0000.0,0006.83,0003.15,0002.51
2022-03-22 04:15:00,,0827.1,4.98,0.00,22.5,21.6,00.0,31.5,24.2,10.4,0000.0,0007.35,0003.14,0002.49
2022-03-22 04:16:00,,0827.2,5.00,0.00,22.4,21.6,00.0,31.5,24.2,10.4,0000.0,0007.65,0003.09,0002.46
2022-03-22 04:17:00,,0827.1,5.01,0.00,22.4,21.6,00.0,31.5,24.2,10.5,0000.0,0008.01,0003.07,0002.44
2022-03-22 04:18:00,,0827.1,5.01,0.00,22.4,21.6,00.0,31.4,24.2,10.5,0000.0,0008.59,0003.06,0002.42
2022-03-22 04:19:00,,0827.2,5.00,0.00,22.4,21.6,00.0,31.4,24.2,10.3,0000.0,0008.59,0003.09,0002.43
2022-03-22 04:20:00,,0827.3,4.99,0.00,22.4,21.5,00.0,31.4,24.1,10.3,0000.0,0008.63,0003.12,0002.44
2022-03-22 04:21:00,,0827.5,5.00,0.00,22.4,21.5,00.0,31.4,24.2,10.3,0000.0,0008.64,0003.13,0002.46
2022-03-22 04:22:00,,0827.6,5.00,0.00,22.4,21.5,00.0,31.4,24.2,10.3,0000.0,0008.67,0003.14,0002.46
2022-03-22 04:23:00,,0827.7,5.00,0.00,22.4,21.5,00.0,31.4,24.2,10.2,0000.0,0008.24,0003.18,0002.47
2022-03-22 04:24:00,,0827.5,5.00,0.00,22.4,21.5,00.0,31.4,24.2,10.2,0000.0,0007.82,0003.17,0002.47
2022-03-22 04:25:00,,0827.2,5.02,0.00,22.4,21.5,00.0,31.4,24.2,10.4,0000.0,0007.69,0003.19,0002.49
2022-03-22 04:26:00,,0827.3,4.99,0.00,22.4,21.5,00.0,31.4,24.2,10.3,0000.0,0007.59,0003.19,0002.50
2022-03-22 04:27:00,,0827.3,5.00,0.00,22.4,21.5,00.0,31.4,24.2,10.4,0000.0,0007.55,0003.21,0002.52
2022-03-22 04:28:00,,0827.3,5.00,0.00,22.4,21.6,00.0,31.4,24.2,10.4,0000.0,0007.27,0003.23,0002.54
2022-03-22 04:29:00,,0827.3,5.00,0.00,22.4,21.5,00.0,31.4,24.2,10.4,0000.0,0006.25,0003.24,0002.56
2022-03-22 04:30:00,,0827.3,5.01,0.00,22.4,21.5,00.0,31.4,24.2,10.6,0000.0,0006.70,0003.25,0002.58
2022-03-22 04:31:00,,0827.3,5.00,0.00,22.4,21.5,00.0,31.4,24.2,10.5,0000.0,0006.78,0003.26,0002.60
2022-03-22 04:32:00,,0827.4,5.00,0.00,22.4,21.5,00.0,31.4,24.2,10.5,0000.0,0006.94,0003.28,0002.61
2022-03-22 04:33:00,,0827.4,5.00,0.00,22.4,21.5,00.0,31.4,24.2,10.5,0000.0,0006.95,0003.29,0002.63
2022-03-22 04:34:00,,0827.4,4.99,0.00,22.4,21.5,00.0,31.4,24.2,10.6,0000.0,0006.91,0003.29,0002.66
2022-03-22 04:35:00,,0827.4,5.01,0.00,22.4,21.5,00.0,31.4,24.2,10.5,0000.0,0006.95,0003.30,0002.69
2022-03-22 04:36:00,,0827.4,5.00,0.00,22.4,21.5,00.0,31.4,24.2,10.4,0000.0,0006.98,0003.32,0002.70
2022-03-22 04:37:00,,0827.4,5.00,0.00,22.4,21.5,00.0,31.4,24.2,10.4,0000.0,0006.87,0003.35,0002.73
2022-03-22 04:38:00,,0827.4,4.98,0.00,22.4,21.5,00.0,31.4,24.1,10.3,0000.0,0006.12,0003.36,0002.76
2022-03-22 04:39:00,,0827.4,5.01,0.00,22.4,21.5,00.0,31.4,24.1,10.4,0000.0,0005.89,0003.35,0002.78
2022-03-22 04:40:00,,0827.4,5.00,0.00,22.4,21.5,00.0,31.4,24.2,10.3,0000.0,0005.91,0003.38,0002.81
2022-03-22 04:41:00,,0827.4,5.00,0.00,22.4,21.5,00.0,31.4,24.1,10.2,0000.0,0005.35,0003.37,0002.82
2022-03-22 04:42:00,,0827.4,4.99,0.00,22.4,21.5,00.0,31.4,24.1,10.1,0000.0,0005.23,0003.36,0002.82
2022-03-22 04:43:00,,0827.4,5.00,0.00,22.4,21.5,00.0,31.4,24.1,10.2,0000.0,0006.43,0003.35,0002.83
2022-03-22 04:44:00,,0827.4,5.00,0.00,22.4,21.5,00.0,31.4,24.1,10.3,0000.0,0006.40,0003.34,0002.84
2022-03-22 04:45:00,,0827.4,5.00,0.00,22.4,21.5,00.0,31.4,24.1,10.3,0000.0,0006.30,0003.33,0002.84
2022-03-22 04:46:00,,0827.4,5.00,0.00,22.4,21.5,00.0,31.4,24.1,10.2,0000.0,0006.45,0003.35,0002.84
2022-03-22 04:47:00,,0827.4,5.00,0.00,22.3,21.4,00.0,31.4,24.1,10.1,0000.0,0006.42,0003.33,0002.82
2022-03-22 04:48:00,,0827.4,5.00,0.00,22.3,21.4,00.0,31.3,24.1,10.2,0000.0,0006.75,0003.31,0002.80
2022-03-22 04:49:00,,0827.4,4.99,0.00,22.3,21.4,00.0,31.3,24.1,10.1,0000.0,0007.85,0003.28,0002.77
2022-03-22 04:50:00,,0827.4,4.99,0.00,22.3,21.4,00.0,31.3,24.1,10.0,0000.0,0008.11,0003.27,0002.73
2022-03-22 04:51:00,,0827.4,5.00,0.00,22.3,21.4,00.0,31.3,24.0,10.1,0000.0,0008.02,0003.22,0002.67
2022-03-22 04:52:00,,0827.4,5.01,0.00,22.3,21.4,00.0,31.3,24.0,10.2,0000.0,0008.07,0003.23,0002.64
2022-03-22 04:53:00,,0827.4,5.01,0.00,22.3,21.4,00.0,31.3,24.0,10.1,0000.0,0008.14,0003.24,0002.61
2022-03-22 04:54:00,,0827.5,5.00,0.00,22.3,21.4,00.0,31.3,24.0,10.1,0000.0,0007.55,0003.24,0002.59
2022-03-22 04:55:00,,0827.5,5.00,0.00,22.2,21.3,00.0,31.3,24.0,10.1,0000.0,0007.35,0003.20,0002.54
2022-03-22 04:56:00,,0827.5,5.00,0.00,22.2,21.3,00.0,31.3,24.0,10.2,0000.0,0007.28,0003.15,0002.49
2022-03-22 04:57:00,,0827.5,5.00,0.00,22.3,21.7,00.0,31.3,24.1,10.1,0000.0,0007.16,0003.12,0002.44
2022-03-22 04:58:00,,0827.6,5.01,0.00,22.4,22.5,00.0,31.3,24.3,10.2,0000.0,0007.30,0003.14,0002.40
2022-03-22 04:59:00,,0827.6,5.00,0.00,22.5,23.0,00.0,31.4,24.5,10.3,0000.0,0007.11,0003.10,0002.36
